Location: Ferchesar
(52.6477°N, 12.4298°E)
Time: 17:19:54
(UTC+01:00)

Vanguard 3 - Pass Details

Date: 08 December 2021
Orbit: 508 x 3260 km, 33.3° (Epoch: 22 January)

Event Time Altitude Azimuth Distance (km) Brightness Sun altitude
Rises 06:56:06 0° 265° (W) 7,226 - -10.2°
Exits shadow 06:56:36 - 265° (W) 7,134 11.4 -10.1°
Reaches altitude 10° 07:01:52 10° 257° (WSW) 6,170 11.2 -9.4°
Maximum altitude 07:16:59 31° 206° (SSW) 4,073 10.7 -7.3°
Drops below altitude 10° 07:28:24 10° 151° (SSE) 4,626 12.1 -5.8°
Sets 07:31:59 0° 141° (SE) 5,252 12.9 -5.4°
